| time (UTC) | temp F | wind direction | speed MPH | gust MPH | rain 1hr in | rain 24hr in | rain mn in | humidity % | barometer mb |
| 20260506062400 | 52 | 108 | 2.0 | 8.0 | 0.00 | 0.00 | 0.00 | 85 | 1009.6 |
| 20260506061901 | 52 | 85 | 2.0 | 9.0 | 0.00 | 0.00 | 0.00 | 85 | 1009.6 |
| 20260506061856 | 52 | 100 | 2.0 | 9.0 | 0.00 | 0.00 | 0.00 | 85 | 1009.6 |
| 20260506061401 | 52 | 93 | 3.0 | 9.0 | 0.00 | 0.00 | 0.00 | 85 | 1009.5 |
| 20260506060900 | 52 | 77 | 3.0 | 9.0 | 0.00 | 0.00 | 0.00 | 85 | 1009.4 |
| 20260506060855 | 52 | 41 | 3.0 | 9.0 | 0.00 | 0.00 | 0.00 | 85 | 1009.5 |
| 20260506060401 | 52 | 127 | 3.0 | 9.0 | 0.00 | 0.00 | 0.00 | 85 | 1009.4 |
| 20260506051356 | 51 | 2 | 2.0 | 7.0 | 0.00 | 0.00 | 0.00 | 85 | 1009.3 |
| 20260506050900 | 51 | 75 | 1.0 | 7.0 | 0.00 | 0.00 | 0.00 | 85 | 1009.3 |
| 20260506050852 | 51 | 75 | 1.0 | 7.0 | 0.00 | 0.00 | 0.00 | 85 | 1009.4 |
| 20260506050354 | 51 | 343 | 1.0 | 4.0 | 0.00 | 0.00 | 0.00 | 85 | 1009.4 |
| 20260506044850 | 51 | 349 | 2.0 | 7.0 | 0.00 | 0.00 | 0.00 | 85 | 1009.5 |
| 20260506044354 | 51 | 18 | 2.0 | 7.0 | 0.00 | 0.00 | 0.00 | 84 | 1009.6 |
| 20260506043859 | 51 | 52 | 2.0 | 6.0 | 0.00 | 0.00 | 0.00 | 84 | 1009.5 |
| 20260506043854 | 51 | 52 | 2.0 | 6.0 | 0.00 | 0.00 | 0.00 | 84 | 1009.6 |
| 20260506043354 | 51 | 159 | 2.0 | 8.0 | 0.00 | 0.00 | 0.00 | 84 | 1009.6 |
| 20260506042855 | 50 | 98 | 2.0 | 8.0 | 0.00 | 0.00 | 0.00 | 84 | 1009.5 |
| 20260506042849 | 50 | 359 | 2.0 | 8.0 | 0.00 | 0.00 | 0.00 | 84 | 1009.5 |
| 20260506042355 | 50 | 112 | 2.0 | 6.0 | 0.00 | 0.00 | 0.00 | 84 | 1009.6 |
| 20260506041857 | 50 | 14 | 2.0 | 6.0 | 0.00 | 0.00 | 0.00 | 84 | 1009.4 |
| 20260506041851 | 50 | 35 | 2.0 | 6.0 | 0.00 | 0.00 | 0.00 | 84 | 1009.5 |
| 20260506041354 | 50 | 66 | 2.0 | 6.0 | 0.00 | 0.00 | 0.00 | 84 | 1009.5 |
| 20260506040856 | 50 | 356 | 2.0 | 6.0 | 0.00 | 0.00 | 0.00 | 85 | 1009.5 |
| 20260506040851 | 50 | 4 | 2.0 | 6.0 | 0.00 | 0.00 | 0.00 | 85 | 1009.5 |
| 20260506040355 | 50 | 12 | 2.0 | 6.0 | 0.00 | 0.00 | 0.00 | 85 | 1009.5 |
| 20260506035855 | 51 | 68 | 2.0 | 6.0 | 0.00 | 0.00 | 0.00 | 85 | 1009.6 |
| 20260506035849 | 51 | 71 | 2.0 | 6.0 | 0.00 | 0.00 | 0.00 | 85 | 1009.5 |
| 20260506035356 | 51 | 23 | 2.0 | 6.0 | 0.00 | 0.00 | 0.00 | 85 | 1009.5 |
| 20260506034850 | 51 | 359 | 2.0 | 6.0 | 0.00 | 0.00 | 0.00 | 85 | 1009.5 |
| 20260506034342 | 51 | 112 | 2.0 | 5.0 | 0.00 | 0.00 | 0.00 | 85 | 1009.6 |
| 20260506033848 | 51 | 187 | 2.0 | 5.0 | 0.00 | 0.00 | 0.00 | 85 | 1009.5 |
| 20260506033837 | 51 | 80 | 2.0 | 5.0 | 0.00 | 0.00 | 0.00 | 85 | 1009.5 |
| 20260506033334 | 51 | 21 | 2.0 | 8.0 | 0.00 | 0.00 | 0.00 | 85 | 1009.6 |
| 20260506032844 | 51 | 127 | 3.0 | 8.0 | 0.00 | 0.00 | 0.00 | 85 | 1009.6 |
| 20260506032825 | 51 | 112 | 3.0 | 8.0 | 0.00 | 0.00 | 0.00 | 85 | 1009.6 |
| 20260506032319 | 51 | 133 | 3.0 | 9.0 | 0.00 | 0.00 | 0.00 | 86 | 1009.7 |
| 20260506031845 | 51 | 54 | 3.0 | 9.0 | 0.00 | 0.00 | 0.00 | 86 | 1009.7 |
| 20260506031813 | 51 | 9 | 3.0 | 9.0 | 0.00 | 0.00 | 0.00 | 86 | 1009.7 |
| 20260506031307 | 50 | 52 | 2.0 | 8.0 | 0.00 | 0.00 | 0.00 | 86 | 1009.8 |
| 20260506030844 | 50 | 338 | 2.0 | 7.0 | 0.00 | 0.00 | 0.00 | 86 | 1009.8 |
| 20260506030801 | 50 | 14 | 2.0 | 7.0 | 0.00 | 0.00 | 0.00 | 86 | 1009.8 |
| 20260506030255 | 50 | 143 | 1.0 | 5.0 | 0.00 | 0.00 | 0.00 | 86 | 1009.8 |
| 20260506025843 | 50 | 4 | 1.0 | 7.0 | 0.00 | 0.00 | 0.00 | 86 | 1009.9 |
| 20260506025749 | 50 | 0 | 1.0 | 7.0 | 0.00 | 0.00 | 0.00 | 86 | 1009.9 |
| 20260506025243 | 50 | 137 | 2.0 | 7.0 | 0.00 | 0.00 | 0.00 | 86 | 1009.8 |
| 20260506024844 | 50 | 127 | 2.0 | 6.0 | 0.00 | 0.00 | 0.00 | 86 | 1009.9 |
| 20260506024737 | 50 | 127 | 2.0 | 6.0 | 0.00 | 0.00 | 0.00 | 86 | 1009.9 |
| 20260506024231 | 50 | 33 | 2.0 | 8.0 | 0.00 | 0.00 | 0.00 | 86 | 1009.8 |
| 20260506023844 | 50 | 61 | 3.0 | 8.0 | 0.00 | 0.00 | 0.00 | 86 | 1009.9 |
| 20260506023725 | 50 | 314 | 3.0 | 8.0 | 0.00 | 0.00 | 0.00 | 86 | 1009.9 |
| 20260506023219 | 50 | 104 | 2.0 | 9.0 | 0.00 | 0.00 | 0.00 | 86 | 1009.9 |
| 20260506022843 | 50 | 98 | 2.0 | 9.0 | 0.00 | 0.00 | 0.00 | 86 | 1010.0 |
| 20260506022713 | 50 | 68 | 2.0 | 9.0 | 0.00 | 0.00 | 0.00 | 86 | 1010.0 |
| 20260506022209 | 50 | 21 | 2.0 | 8.0 | 0.00 | 0.00 | 0.00 | 85 | 1010.0 |
| 20260506021844 | 50 | 117 | 1.0 | 8.0 | 0.00 | 0.00 | 0.00 | 85 | 1009.8 |
| 20260506021701 | 50 | 63 | 1.0 | 8.0 | 0.00 | 0.00 | 0.00 | 84 | 1009.9 |
| 20260506021155 | 50 | 18 | 1.0 | 7.0 | 0.00 | 0.00 | 0.00 | 84 | 1010.0 |
| 20260506020839 | 50 | 26 | 1.0 | 5.0 | 0.00 | 0.00 | 0.00 | 84 | 1010.1 |
| 20260506020649 | 50 | 25 | 1.0 | 5.0 | 0.00 | 0.00 | 0.00 | 84 | 1010.1 |
| 20260506020143 | 50 | 68 | 1.0 | 6.0 | 0.00 | 0.00 | 0.00 | 84 | 1010.1 |
| 20260506015837 | 50 | 24 | 2.0 | 6.0 | 0.00 | 0.00 | 0.00 | 84 | 1010.1 |
| 20260506015637 | 50 | 1 | 1.0 | 6.0 | 0.00 | 0.00 | 0.00 | 84 | 1010.1 |
| 20260506015131 | 50 | 49 | 1.0 | 6.0 | 0.00 | 0.00 | 0.00 | 84 | 1010.2 |
| 20260506014838 | 50 | 4 | 1.0 | 4.0 | 0.00 | 0.00 | 0.00 | 85 | 1010.1 |
| 20260506014628 | 50 | 79 | 1.0 | 4.0 | 0.00 | 0.00 | 0.00 | 85 | 1010.2 |
| 20260506014127 | 50 | 32 | 1.0 | 4.0 | 0.00 | 0.00 | 0.00 | 85 | 1010.2 |
| 20260506013841 | 50 | 106 | 1.0 | 4.0 | 0.00 | 0.00 | 0.00 | 85 | 1010.2 |
| 20260506013627 | 50 | 76 | 1.0 | 4.0 | 0.00 | 0.00 | 0.00 | 85 | 1010.3 |
| 20260506013125 | 49 | 35 | 1.0 | 4.0 | 0.00 | 0.00 | 0.00 | 85 | 1010.2 |
| 20260506012837 | 49 | 349 | 1.0 | 3.0 | 0.00 | 0.00 | 0.00 | 85 | 1010.3 |
| 20260506012625 | 49 | 30 | 1.0 | 4.0 | 0.00 | 0.00 | 0.00 | 86 | 1010.3 |
| 20260506012125 | 49 | 42 | 1.0 | 4.0 | 0.00 | 0.00 | 0.00 | 86 | 1010.4 |
| 20260506011837 | 49 | 42 | 1.0 | 4.0 | 0.00 | 0.00 | 0.00 | 86 | 1010.3 |
| 20260506011623 | 49 | 21 | 1.0 | 4.0 | 0.00 | 0.00 | 0.00 | 86 | 1010.3 |
| 20260506011121 | 49 | 81 | 1.0 | 4.0 | 0.00 | 0.00 | 0.00 | 86 | 1010.4 |
| 20260506010839 | 49 | 189 | 1.0 | 4.0 | 0.00 | 0.00 | 0.00 | 86 | 1010.3 |
| 20260506010622 | 49 | 91 | 1.0 | 4.0 | 0.00 | 0.00 | 0.00 | 86 | 1010.4 |
| 20260506010122 | 49 | 3 | 1.0 | 5.0 | 0.00 | 0.00 | 0.00 | 86 | 1010.3 |
| 20260506005838 | 49 | 100 | 1.0 | 5.0 | 0.00 | 0.00 | 0.00 | 86 | 1010.3 |
| 20260506005622 | 49 | 191 | 1.0 | 5.0 | 0.00 | 0.00 | 0.00 | 86 | 1010.3 |
| 20260506005231 | 49 | 59 | 2.0 | 6.0 | 0.00 | 0.00 | 0.00 | 86 | 1010.7 |
| 20260506005120 | 49 | 117 | 1.0 | 4.0 | 0.00 | 0.00 | 0.00 | 86 | 1010.4 |
| 20260506005009 | 49 | 66 | 1.0 | 4.0 | 0.00 | 0.00 | 0.00 | 86 | 1010.4 |
| 20260506004622 | 49 | 107 | 1.0 | 6.0 | 0.00 | 0.00 | 0.00 | 86 | 1010.5 |
| 20260506004120 | 49 | 102 | 2.0 | 6.0 | 0.00 | 0.00 | 0.00 | 86 | 1010.5 |
| 20260506003618 | 49 | 88 | 2.0 | 6.0 | 0.00 | 0.00 | 0.00 | 86 | 1010.6 |
| 20260506003118 | 49 | 79 | 1.0 | 6.0 | 0.00 | 0.00 | 0.00 | 86 | 1010.7 |
| 20260506002832 | 48 | 165 | 1.0 | 4.0 | 0.00 | 0.00 | 0.00 | 86 | 1010.7 |
| 20260506002620 | 48 | 46 | 1.0 | 4.0 | 0.00 | 0.00 | 0.00 | 86 | 1010.7 |
| 20260506002118 | 48 | 139 | 1.0 | 4.0 | 0.00 | 0.00 | 0.00 | 86 | 1010.7 |
| 20260506001833 | 48 | 51 | 1.0 | 5.0 | 0.00 | 0.00 | 0.00 | 86 | 1010.8 |
| 20260506001613 | 48 | 52 | 1.0 | 5.0 | 0.00 | 0.00 | 0.00 | 86 | 1010.7 |
| 20260506001107 | 48 | 48 | 1.0 | 5.0 | 0.00 | 0.00 | 0.00 | 86 | 1010.8 |
| 20260506000829 | 48 | 45 | 1.0 | 4.0 | 0.00 | 0.00 | 0.00 | 86 | 1010.7 |
| 20260506000601 | 48 | 21 | 1.0 | 4.0 | 0.00 | 0.00 | 0.00 | 86 | 1010.9 |
| 20260506000101 | 48 | 53 | 1.0 | 3.0 | 0.00 | 0.00 | 0.00 | 86 | 1010.9 |
| 20260505235833 | 48 | 317 | 1.0 | 4.0 | 0.00 | 0.00 | 0.00 | 86 | 1011.0 |
| 20260505235601 | 48 | 55 | 1.0 | 4.0 | 0.00 | 0.00 | 0.00 | 86 | 1011.0 |
| 20260505235101 | 48 | 19 | 1.0 | 4.0 | 0.00 | 0.00 | 0.00 | 86 | 1011.1 |
| 20260505234829 | 48 | 66 | 1.0 | 4.0 | 0.00 | 0.00 | 0.00 | 86 | 1011.1 |
| 20260505234558 | 48 | 48 | 1.0 | 4.0 | 0.00 | 0.00 | 0.00 | 86 | 1011.1 |
| 20260505234309 | 48 | 15 | 1.0 | 4.0 | 0.00 | 0.00 | 0.00 | 86 | 1011.3 |
| 20260505234118 | 48 | 25 | 1.0 | 4.0 | 0.00 | 0.00 | 0.00 | 86 | 1011.2 |
| 20260505233559 | 48 | 16 | 2.0 | 4.0 | 0.00 | 0.00 | 0.00 | 86 | 1011.2 |
| 20260505233059 | 48 | 358 | 2.0 | 4.0 | 0.00 | 0.00 | 0.00 | 86 | 1011.2 |
| 20260505232829 | 48 | 358 | 1.0 | 4.0 | 0.00 | 0.00 | 0.00 | 85 | 1011.3 |
| 20260505232558 | 48 | 66 | 1.0 | 3.0 | 0.00 | 0.00 | 0.00 | 85 | 1011.3 |
| 20260505232057 | 48 | 12 | 1.0 | 3.0 | 0.00 | 0.00 | 0.00 | 85 | 1011.3 |
| 20260505231827 | 48 | 10 | 1.0 | 3.0 | 0.00 | 0.00 | 0.00 | 85 | 1011.3 |
| 20260505231559 | 49 | 30 | 1.0 | 3.0 | 0.00 | 0.00 | 0.00 | 85 | 1011.3 |
| 20260505231058 | 49 | 34 | 1.0 | 3.0 | 0.00 | 0.00 | 0.00 | 85 | 1011.3 |
| 20260505230827 | 49 | 39 | 1.0 | 3.0 | 0.00 | 0.00 | 0.00 | 84 | 1011.3 |
| 20260505230559 | 49 | 78 | 1.0 | 5.0 | 0.00 | 0.00 | 0.00 | 84 | 1011.3 |
| 20260505230058 | 49 | 81 | 2.0 | 7.0 | 0.00 | 0.00 | 0.00 | 84 | 1011.3 |
| 20260505225827 | 49 | 103 | 2.0 | 7.0 | 0.00 | 0.00 | 0.00 | 84 | 1011.2 |
| 20260505225558 | 49 | 44 | 1.0 | 7.0 | 0.00 | 0.00 | 0.00 | 84 | 1011.2 |
| 20260505225058 | 49 | 341 | 1.0 | 4.0 | 0.00 | 0.00 | 0.00 | 84 | 1011.3 |
| 20260505224831 | 49 | 70 | 1.0 | 4.0 | 0.00 | 0.00 | 0.00 | 84 | 1011.4 |
| 20260505224558 | 49 | 70 | 1.0 | 5.0 | 0.00 | 0.00 | 0.00 | 83 | 1011.3 |
| 20260505224101 | 49 | 81 | 1.0 | 5.0 | 0.00 | 0.00 | 0.00 | 83 | 1011.4 |
| 20260505223827 | 49 | 82 | 1.0 | 5.0 | 0.00 | 0.00 | 0.00 | 83 | 1011.3 |
| 20260505223558 | 49 | 68 | 1.0 | 5.0 | 0.00 | 0.00 | 0.00 | 82 | 1011.4 |
| 20260505223058 | 50 | 117 | 1.0 | 5.0 | 0.00 | 0.00 | 0.00 | 82 | 1011.4 |
| 20260505222827 | 50 | 117 | 1.0 | 5.0 | 0.00 | 0.00 | 0.00 | 82 | 1011.5 |
| 20260505222558 | 50 | 117 | 1.0 | 5.0 | 0.00 | 0.00 | 0.00 | 82 | 1011.4 |
| 20260505222058 | 50 | 81 | 1.0 | 5.0 | 0.00 | 0.00 | 0.00 | 81 | 1011.4 |
| 20260505221833 | 50 | 127 | 2.0 | 5.0 | 0.00 | 0.00 | 0.00 | 81 | 1011.5 |
| 20260505221558 | 50 | 156 | 2.0 | 5.0 | 0.00 | 0.00 | 0.00 | 81 | 1011.5 |
| 20260505221059 | 50 | 16 | 2.0 | 5.0 | 0.00 | 0.00 | 0.00 | 81 | 1011.5 |
| 20260505220827 | 50 | 56 | 1.0 | 5.0 | 0.00 | 0.00 | 0.00 | 81 | 1011.6 |
| 20260505220558 | 50 | 78 | 1.0 | 5.0 | 0.00 | 0.00 | 0.00 | 81 | 1011.6 |
| 20260505220057 | 50 | 133 | 1.0 | 4.0 | 0.00 | 0.00 | 0.00 | 81 | 1011.6 |
| 20260505215825 | 50 | 16 | 2.0 | 6.0 | 0.00 | 0.00 | 0.00 | 80 | 1011.7 |
| 20260505215552 | 50 | 107 | 2.0 | 6.0 | 0.00 | 0.00 | 0.00 | 80 | 1011.7 |
| 20260505215053 | 50 | 26 | 2.0 | 6.0 | 0.00 | 0.00 | 0.00 | 80 | 1011.8 |
| 20260505214824 | 50 | 92 | 2.0 | 4.0 | 0.00 | 0.00 | 0.00 | 80 | 1011.7 |
| 20260505214552 | 50 | 66 | 2.0 | 4.0 | 0.00 | 0.00 | 0.00 | 80 | 1011.7 |
| 20260505214054 | 50 | 112 | 2.0 | 4.0 | 0.00 | 0.00 | 0.00 | 80 | 1011.8 |
| 20260505213825 | 50 | 22 | 2.0 | 4.0 | 0.00 | 0.00 | 0.00 | 80 | 1011.7 |
| 20260505213554 | 49 | 346 | 2.0 | 4.0 | 0.00 | 0.00 | 0.00 | 80 | 1011.8 |
| 20260505213047 | 50 | 104 | 1.0 | 4.0 | 0.00 | 0.00 | 0.00 | 80 | 1011.8 |
| 20260505212824 | 49 | 153 | 1.0 | 4.0 | 0.00 | 0.00 | 0.00 | 80 | 1011.9 |
| 20260505212547 | 49 | 117 | 1.0 | 6.0 | 0.00 | 0.00 | 0.00 | 80 | 1011.9 |
| 20260505212048 | 49 | 355 | 1.0 | 6.0 | 0.00 | 0.00 | 0.00 | 80 | 1011.8 |
| 20260505211824 | 49 | 40 | 1.0 | 6.0 | 0.00 | 0.00 | 0.00 | 80 | 1011.9 |
| 20260505211547 | 49 | 77 | 1.0 | 4.0 | 0.00 | 0.00 | 0.00 | 80 | 1011.9 |
| 20260505211047 | 49 | 82 | 1.0 | 4.0 | 0.00 | 0.00 | 0.00 | 80 | 1011.9 |
| 20260505210823 | 49 | 131 | 1.0 | 4.0 | 0.00 | 0.00 | 0.00 | 80 | 1011.8 |
| 20260505210548 | 49 | 131 | 1.0 | 4.0 | 0.00 | 0.00 | 0.00 | 80 | 1011.9 |
| 20260505210046 | 49 | 88 | 2.0 | 4.0 | 0.00 | 0.00 | 0.00 | 80 | 1011.9 |
| 20260505205825 | 49 | 96 | 2.0 | 4.0 | 0.00 | 0.00 | 0.00 | 80 | 1011.9 |
| 20260505205745 | 50 | 135 | 2.0 | 4.0 | 0.00 | 0.00 | 0.00 | 79 | 1011.9 |
| 20260505205552 | 49 | 95 | 2.0 | 4.0 | 0.00 | 0.00 | 0.00 | 79 | 1012.0 |
| 20260505205109 | 50 | 98 | 2.0 | 4.0 | 0.00 | 0.00 | 0.00 | 79 | 1011.9 |
| 20260505204544 | 50 | 135 | 1.0 | 4.0 | 0.00 | 0.00 | 0.00 | 79 | 1011.9 |
| 20260505204047 | 50 | 97 | 2.0 | 5.0 | 0.00 | 0.00 | 0.00 | 79 | 1011.9 |
| 20260505203823 | 50 | 140 | 2.0 | 5.0 | 0.00 | 0.00 | 0.00 | 79 | 1011.9 |
| 20260505203542 | 50 | 141 | 2.0 | 5.0 | 0.00 | 0.00 | 0.00 | 79 | 1012.0 |
| 20260505203044 | 50 | 122 | 1.0 | 4.0 | 0.00 | 0.00 | 0.00 | 79 | 1011.8 |
| 20260505202825 | 50 | 96 | 1.0 | 4.0 | 0.00 | 0.00 | 0.00 | 79 | 1011.8 |
| 20260505202543 | 50 | 72 | 1.0 | 4.0 | 0.00 | 0.00 | 0.00 | 79 | 1011.7 |
| 20260505202041 | 50 | 113 | 1.0 | 4.0 | 0.00 | 0.00 | 0.00 | 78 | 1011.8 |
| 20260505201827 | 50 | 29 | 1.0 | 4.0 | 0.00 | 0.00 | 0.00 | 78 | 1011.8 |
| 20260505201541 | 50 | 30 | 1.0 | 4.0 | 0.00 | 0.00 | 0.00 | 78 | 1011.8 |
| 20260505201040 | 50 | 30 | 2.0 | 6.0 | 0.00 | 0.00 | 0.00 | 78 | 1011.7 |
| 20260505200823 | 50 | 62 | 2.0 | 6.0 | 0.00 | 0.00 | 0.00 | 78 | 1011.6 |
| 20260505200541 | 50 | 60 | 2.0 | 6.0 | 0.00 | 0.00 | 0.00 | 77 | 1011.7 |
| 20260505200042 | 50 | 39 | 2.0 | 6.0 | 0.00 | 0.00 | 0.00 | 77 | 1011.6 |
| 20260505195824 | 50 | 89 | 2.0 | 6.0 | 0.00 | 0.00 | 0.00 | 77 | 1011.6 |
| 20260505195747 | 50 | 29 | 2.0 | 8.0 | 0.00 | 0.00 | 0.00 | 76 | 1011.6 |
| 20260505195552 | 50 | 127 | 2.0 | 5.0 | 0.00 | 0.00 | 0.00 | 77 | 1011.6 |
| 20260505195107 | 50 | 65 | 2.0 | 5.0 | 0.00 | 0.00 | 0.00 | 76 | 1011.4 |
| 20260505194538 | 50 | 59 | 2.0 | 8.0 | 0.00 | 0.00 | 0.00 | 76 | 1011.6 |
| 20260505194037 | 50 | 335 | 2.0 | 9.0 | 0.00 | 0.00 | 0.00 | 76 | 1011.5 |
| 20260505193824 | 50 | 135 | 2.0 | 9.0 | 0.00 | 0.00 | 0.00 | 76 | 1011.5 |
| 20260505193536 | 50 | 1 | 2.0 | 9.0 | 0.00 | 0.00 | 0.00 | 76 | 1011.4 |
| 20260505193037 | 50 | 56 | 2.0 | 6.0 | 0.00 | 0.00 | 0.00 | 76 | 1011.4 |
| 20260505192824 | 50 | 127 | 2.0 | 7.0 | 0.00 | 0.00 | 0.00 | 76 | 1011.4 |
| 20260505192538 | 51 | 60 | 2.0 | 7.0 | 0.00 | 0.00 | 0.00 | 75 | 1011.4 |
| 20260505192036 | 51 | 91 | 2.0 | 7.0 | 0.00 | 0.00 | 0.00 | 75 | 1011.4 |
| 20260505191823 | 51 | 43 | 2.0 | 7.0 | 0.00 | 0.00 | 0.00 | 75 | 1011.5 |
| 20260505191536 | 51 | 122 | 2.0 | 7.0 | 0.00 | 0.00 | 0.00 | 75 | 1011.4 |
| 20260505191037 | 51 | 87 | 2.0 | 7.0 | 0.00 | 0.00 | 0.00 | 75 | 1011.3 |
| 20260505190823 | 51 | 98 | 2.0 | 7.0 | 0.00 | 0.00 | 0.00 | 75 | 1011.4 |
| 20260505190536 | 51 | 352 | 2.0 | 8.0 | 0.00 | 0.00 | 0.00 | 75 | 1011.5 |
| 20260505190036 | 51 | 135 | 2.0 | 8.0 | 0.00 | 0.00 | 0.00 | 75 | 1011.4 |
| 20260505185825 | 51 | 83 | 2.0 | 8.0 | 0.00 | 0.00 | 0.00 | 75 | 1011.4 |
| 20260505185534 | 51 | 138 | 2.0 | 7.0 | 0.00 | 0.00 | 0.00 | 75 | 1011.4 |
| 20260505185034 | 51 | 112 | 2.0 | 7.0 | 0.00 | 0.00 | 0.00 | 75 | 1011.3 |
| 20260505184823 | 51 | 98 | 2.0 | 7.0 | 0.00 | 0.00 | 0.00 | 74 | 1011.3 |
| 20260505184534 | 52 | 78 | 2.0 | 7.0 | 0.00 | 0.00 | 0.00 | 74 | 1011.3 |
| 20260505184035 | 52 | 100 | 2.0 | 7.0 | 0.00 | 0.00 | 0.00 | 74 | 1011.2 |
| 20260505183823 | 52 | 152 | 3.0 | 7.0 | 0.00 | 0.00 | 0.00 | 74 | 1011.2 |
| 20260505183536 | 52 | 41 | 3.0 | 7.0 | 0.00 | 0.00 | 0.00 | 74 | 1011.2 |
| 20260505183029 | 52 | 117 | 3.0 | 9.0 | 0.00 | 0.00 | 0.00 | 75 | 1011.2 |
| 20260505182823 | 52 | 73 | 3.0 | 9.0 | 0.00 | 0.00 | 0.00 | 75 | 1011.3 |
| 20260505182523 | 52 | 127 | 2.0 | 9.0 | 0.00 | 0.00 | 0.00 | 75 | 1011.3 |
| 20260505182020 | 53 | 89 | 2.0 | 9.0 | 0.00 | 0.00 | 0.00 | 76 | 1011.2 |
| 20260505181824 | 53 | 52 | 2.0 | 7.0 | 0.00 | 0.00 | 0.00 | 76 | 1011.3 |
| 20260505181511 | 53 | 341 | 3.0 | 8.0 | 0.00 | 0.00 | 0.00 | 76 | 1011.2 |
| 20260505181005 | 53 | 21 | 3.0 | 10.0 | 0.00 | 0.00 | 0.00 | 75 | 1011.4 |
| 20260505180825 | 53 | 83 | 3.0 | 10.0 | 0.00 | 0.00 | 0.00 | 75 | 1011.4 |
| 20260505180459 | 53 | 77 | 3.0 | 10.0 | 0.00 | 0.00 | 0.00 | 74 | 1011.4 |
| 20260505180255 | 53 | 51 | 3.0 | 12.0 | 0.00 | 0.00 | 0.00 | 74 | 1011.4 |
| 20260505180053 | 53 | 25 | 3.0 | 12.0 | 0.00 | 0.00 | 0.00 | 74 | 1011.4 |
| 20260505175447 | 53 | 4 | 3.0 | 12.0 | 0.00 | 0.00 | 0.00 | 74 | 1011.4 |
| 20260505175259 | 53 | 186 | 3.0 | 9.0 | 0.00 | 0.00 | 0.00 | 73 | 1011.4 |
| 20260505175048 | 53 | 44 | 3.0 | 9.0 | 0.00 | 0.00 | 0.00 | 73 | 1011.4 |
| 20260505174435 | 53 | 182 | 3.0 | 11.0 | 0.00 | 0.00 | 0.00 | 73 | 1011.4 |
| 20260505173929 | 53 | 122 | 4.0 | 11.0 | 0.00 | 0.00 | 0.00 | 73 | 1011.4 |
| 20260505173823 | 53 | 127 | 4.0 | 11.0 | 0.00 | 0.00 | 0.00 | 73 | 1011.3 |
| 20260505173423 | 53 | 64 | 3.0 | 10.0 | 0.00 | 0.00 | 0.00 | 73 | 1011.3 |
| 20260505172918 | 54 | 42 | 3.0 | 9.0 | 0.00 | 0.00 | 0.00 | 74 | 1011.5 |
| 20260505172819 | 54 | 46 | 3.0 | 9.0 | 0.00 | 0.00 | 0.00 | 74 | 1011.4 |
| 20260505172411 | 54 | 302 | 4.0 | 9.0 | 0.00 | 0.00 | 0.00 | 73 | 1011.4 |
| 20260505171905 | 54 | 8 | 4.0 | 9.0 | 0.00 | 0.00 | 0.00 | 73 | 1011.3 |
| 20260505171821 | 54 | 20 | 4.0 | 9.0 | 0.00 | 0.00 | 0.00 | 73 | 1011.3 |
| 20260505171359 | 54 | 334 | 4.0 | 10.0 | 0.00 | 0.00 | 0.00 | 73 | 1011.3 |
| 20260505170854 | 55 | 117 | 4.0 | 12.0 | 0.00 | 0.00 | 0.00 | 72 | 1011.4 |
| 20260505170819 | 55 | 110 | 4.0 | 12.0 | 0.00 | 0.00 | 0.00 | 72 | 1011.4 |
| 20260505170731 | 55 | 33 | 4.0 | 10.0 | 0.00 | 0.00 | 0.00 | 71 | 1011.3 |
| 20260505170514 | 55 | 337 | 4.0 | 12.0 | 0.00 | 0.00 | 0.00 | 72 | 1011.4 |
| 20260505170036 | 55 | 74 | 4.0 | 10.0 | 0.00 | 0.00 | 0.00 | 71 | 1011.3 |
| 20260505165335 | 55 | 122 | 3.0 | 13.0 | 0.00 | 0.00 | 0.00 | 71 | 1011.3 |
| 20260505164829 | 55 | 52 | 3.0 | 13.0 | 0.00 | 0.00 | 0.00 | 72 | 1011.3 |
| 20260505164817 | 55 | 43 | 3.0 | 13.0 | 0.00 | 0.00 | 0.00 | 72 | 1011.3 |
| 20260505164323 | 56 | 107 | 3.0 | 10.0 | 0.00 | 0.00 | 0.00 | 71 | 1011.4 |
| 20260505164301 | 56 | 108 | 3.0 | 10.0 | 0.00 | 0.00 | 0.00 | 72 | 1011.4 |
| 20260505164033 | 56 | 108 | 3.0 | 10.0 | 0.00 | 0.00 | 0.00 | 72 | 1011.4 |
| 20260505163311 | 55 | 127 | 3.0 | 11.0 | 0.00 | 0.00 | 0.00 | 72 | 1011.4 |
| 20260505162815 | 56 | 72 | 3.0 | 11.0 | 0.00 | 0.00 | 0.00 | 72 | 1011.4 |
| 20260505162805 | 56 | 181 | 3.0 | 11.0 | 0.00 | 0.00 | 0.00 | 72 | 1011.4 |
| 20260505162258 | 56 | 49 | 4.0 | 12.0 | 0.00 | 0.00 | 0.00 | 71 | 1011.4 |
| 20260505162246 | 56 | 138 | 3.0 | 12.0 | 0.00 | 0.00 | 0.00 | 71 | 1011.3 |
| 20260505161753 | 56 | 161 | 3.0 | 12.0 | 0.00 | 0.00 | 0.00 | 71 | 1011.3 |
| 20260505161247 | 56 | 22 | 4.0 | 13.0 | 0.00 | 0.00 | 0.00 | 71 | 1011.2 |
| 20260505160813 | 56 | 354 | 4.0 | 13.0 | 0.00 | 0.00 | 0.00 | 71 | 1011.2 |
| 20260505160741 | 56 | 14 | 4.0 | 13.0 | 0.00 | 0.00 | 0.00 | 71 | 1011.3 |
| 20260505160236 | 56 | 68 | 3.0 | 11.0 | 0.00 | 0.00 | 0.00 | 71 | 1011.4 |
| 20260505153214 | 56 | 347 | 3.0 | 10.0 | 0.00 | 0.00 | 0.00 | 69 | 1011.3 |
| 20260505152813 | 57 | 36 | 3.0 | 12.0 | 0.00 | 0.00 | 0.00 | 69 | 1011.3 |
| 20260505152716 | 57 | 182 | 4.0 | 12.0 | 0.00 | 0.00 | 0.00 | 69 | 1011.4 |
| 20260505152212 | 57 | 132 | 4.0 | 12.0 | 0.00 | 0.00 | 0.00 | 69 | 1011.3 |
| 20260505151812 | 57 | 343 | 4.0 | 13.0 | 0.00 | 0.00 | 0.00 | 68 | 1011.4 |
| 20260505151712 | 57 | 346 | 4.0 | 13.0 | 0.00 | 0.00 | 0.00 | 68 | 1011.4 |
| 20260505151214 | 57 | 107 | 4.0 | 13.0 | 0.00 | 0.00 | 0.00 | 66 | 1011.4 |
| 20260505150812 | 57 | 112 | 4.0 | 13.0 | 0.00 | 0.00 | 0.00 | 68 | 1011.4 |
| 20260505150713 | 57 | 108 | 4.0 | 13.0 | 0.00 | 0.00 | 0.00 | 68 | 1011.3 |
| 20260505150211 | 57 | 127 | 5.0 | 14.0 | 0.00 | 0.00 | 0.00 | 68 | 1011.3 |
| 20260505140209 | 58 | 168 | 4.0 | 11.0 | 0.00 | 0.00 | 0.00 | 67 | 1011.7 |
| 20260505130210 | 57 | 92 | 4.0 | 11.0 | 0.00 | 0.00 | 0.00 | 69 | 1012.0 |
| 20260505124804 | 57 | 61 | 3.0 | 10.0 | 0.00 | 0.00 | 0.00 | 68 | 1012.0 |
| 20260505124709 | 57 | 103 | 4.0 | 10.0 | 0.00 | 0.00 | 0.00 | 68 | 1012.0 |
| 20260505124209 | 58 | 142 | 3.0 | 11.0 | 0.00 | 0.00 | 0.00 | 68 | 1012.0 |
| 20260505123805 | 58 | 11 | 3.0 | 11.0 | 0.00 | 0.00 | 0.00 | 68 | 1012.0 |
| 20260505123708 | 58 | 117 | 3.0 | 9.0 | 0.00 | 0.00 | 0.00 | 68 | 1012.1 |
| 20260505123209 | 58 | 90 | 3.0 | 9.0 | 0.00 | 0.00 | 0.00 | 69 | 1012.1 |
| 20260505122807 | 57 | 39 | 3.0 | 10.0 | 0.00 | 0.00 | 0.00 | 69 | 1012.1 |
| 20260505122705 | 57 | 15 | 3.0 | 10.0 | 0.00 | 0.00 | 0.00 | 70 | 1012.0 |
| 20260505122205 | 57 | 69 | 4.0 | 10.0 | 0.00 | 0.00 | 0.00 | 68 | 1012.1 |
| 20260505121804 | 56 | 136 | 4.0 | 10.0 | 0.00 | 0.00 | 0.00 | 69 | 1012.1 |
| 20260505121707 | 56 | 69 | 4.0 | 11.0 | 0.00 | 0.00 | 0.00 | 69 | 1012.2 |
| 20260505121203 | 56 | 98 | 4.0 | 11.0 | 0.00 | 0.00 | 0.00 | 70 | 1012.2 |
| 20260505120806 | 56 | 127 | 4.0 | 11.0 | 0.00 | 0.00 | 0.00 | 69 | 1012.2 |
| 20260505120703 | 57 | 144 | 4.0 | 11.0 | 0.00 | 0.00 | 0.00 | 69 | 1012.2 |
| 20260505120204 | 57 | 140 | 3.0 | 8.0 | 0.00 | 0.00 | 0.00 | 69 | 1012.1 |
| 20260505115806 | 57 | 43 | 3.0 | 8.0 | 0.00 | 0.00 | 0.00 | 70 | 1012.2 |
| 20260505115702 | 57 | 28 | 3.0 | 8.0 | 0.00 | 0.00 | 0.00 | 69 | 1012.2 |
| 20260505115203 | 57 | 54 | 3.0 | 10.0 | 0.00 | 0.00 | 0.00 | 69 | 1012.2 |
| 20260505114804 | 56 | 3 | 4.0 | 10.0 | 0.00 | 0.00 | 0.00 | 69 | 1012.4 |
| 20260505114702 | 56 | 127 | 4.0 | 10.0 | 0.00 | 0.00 | 0.00 | 69 | 1012.3 |
| 20260505114250 | 56 | 106 | 4.0 | 12.0 | 0.00 | 0.00 | 0.00 | 69 | 1012.4 |
| 20260505114201 | 56 | 107 | 4.0 | 12.0 | 0.00 | 0.00 | 0.00 | 69 | 1012.3 |
| 20260505113737 | 56 | 90 | 4.0 | 13.0 | 0.00 | 0.00 | 0.00 | 68 | 1012.5 |
| 20260505113702 | 56 | 131 | 4.0 | 12.0 | 0.00 | 0.00 | 0.00 | 69 | 1012.3 |
| 20260505113202 | 56 | 127 | 4.0 | 11.0 | 0.00 | 0.00 | 0.00 | 68 | 1012.4 |
| 20260505112656 | 56 | 52 | 4.0 | 13.0 | 0.00 | 0.00 | 0.00 | 68 | 1012.6 |
| 20260505112150 | 56 | 75 | 4.0 | 13.0 | 0.00 | 0.00 | 0.00 | 69 | 1012.5 |
| 20260505111803 | 56 | 61 | 4.0 | 12.0 | 0.00 | 0.00 | 0.00 | 70 | 1012.5 |
| 20260505111644 | 56 | 134 | 4.0 | 12.0 | 0.00 | 0.00 | 0.00 | 70 | 1012.6 |
| 20260505111138 | 56 | 324 | 4.0 | 10.0 | 0.00 | 0.00 | 0.00 | 69 | 1012.5 |
| 20260505110802 | 56 | 127 | 4.0 | 9.0 | 0.00 | 0.00 | 0.00 | 69 | 1012.4 |
| 20260505110632 | 56 | 138 | 4.0 | 9.0 | 0.00 | 0.00 | 0.00 | 69 | 1012.5 |
| 20260505110126 | 56 | 106 | 4.0 | 11.0 | 0.00 | 0.00 | 0.00 | 69 | 1012.5 |
| 20260505102037 | 56 | 122 | 4.0 | 11.0 | 0.00 | 0.00 | 0.00 | 69 | 1013.0 |
| 20260505101756 | 56 | 133 | 4.0 | 14.0 | 0.00 | 0.00 | 0.00 | 69 | 1012.8 |
| 20260505101716 | 57 | 55 | 3.0 | 7.0 | 0.00 | 0.00 | 0.00 | 70 | 1012.9 |
| 20260505101532 | 56 | 89 | 4.0 | 14.0 | 0.00 | 0.00 | 0.00 | 70 | 1012.8 |
| 20260505101039 | 56 | 122 | 3.0 | 14.0 | 0.00 | 0.00 | 0.00 | 69 | 1012.9 |
| 20260505100520 | 57 | 112 | 3.0 | 6.0 | 0.00 | 0.00 | 0.00 | 69 | 1012.9 |
| 20260505100014 | 56 | 61 | 3.0 | 11.0 | 0.00 | 0.00 | 0.00 | 70 | 1012.8 |
| 20260505095757 | 56 | 110 | 3.0 | 11.0 | 0.00 | 0.00 | 0.00 | 70 | 1012.8 |
| 20260505095508 | 56 | 83 | 3.0 | 11.0 | 0.00 | 0.00 | 0.00 | 69 | 1012.8 |
| 20260505095002 | 56 | 140 | 3.0 | 10.0 | 0.00 | 0.00 | 0.00 | 70 | 1012.8 |
| 20260505094758 | 56 | 142 | 3.0 | 10.0 | 0.00 | 0.00 | 0.00 | 71 | 1012.7 |
| 20260505094715 | 55 | 111 | 4.0 | 11.0 | 0.00 | 0.00 | 0.00 | 69 | 1012.5 |
| 20260505094521 | 56 | 157 | 4.0 | 11.0 | 0.00 | 0.00 | 0.00 | 71 | 1012.7 |
| 20260505094034 | 55 | 91 | 4.0 | 11.0 | 0.00 | 0.00 | 0.00 | 70 | 1012.6 |
| 20260505093444 | 55 | 127 | 4.0 | 10.0 | 0.00 | 0.00 | 0.00 | 70 | 1012.5 |
| 20260505092938 | 55 | 27 | 3.0 | 10.0 | 0.00 | 0.00 | 0.00 | 70 | 1012.4 |
| 20260505092757 | 56 | 117 | 3.0 | 10.0 | 0.00 | 0.00 | 0.00 | 70 | 1012.4 |
| 20260505092432 | 56 | 135 | 3.0 | 9.0 | 0.00 | 0.00 | 0.00 | 71 | 1012.5 |
| 20260505091926 | 55 | 117 | 3.0 | 12.0 | 0.00 | 0.00 | 0.00 | 71 | 1012.5 |
| 20260505091750 | 55 | 81 | 4.0 | 12.0 | 0.00 | 0.00 | 0.00 | 71 | 1012.5 |
| 20260505091420 | 55 | 29 | 4.0 | 14.0 | 0.00 | 0.00 | 0.00 | 72 | 1012.5 |
| 20260505090914 | 55 | 71 | 4.0 | 14.0 | 0.00 | 0.00 | 0.00 | 70 | 1012.4 |
| 20260505090751 | 55 | 102 | 4.0 | 14.0 | 0.00 | 0.00 | 0.00 | 70 | 1012.5 |
| 20260505090408 | 56 | 127 | 3.0 | 10.0 | 0.00 | 0.00 | 0.00 | 70 | 1012.6 |
| 20260505085902 | 55 | 147 | 3.0 | 12.0 | 0.00 | 0.00 | 0.00 | 72 | 1012.5 |
| 20260505085750 | 55 | 62 | 3.0 | 12.0 | 0.00 | 0.00 | 0.00 | 72 | 1012.6 |
| 20260505085356 | 55 | 117 | 4.0 | 12.0 | 0.00 | 0.00 | 0.00 | 72 | 1012.6 |
| 20260505084851 | 55 | 117 | 4.0 | 12.0 | 0.00 | 0.00 | 0.00 | 73 | 1012.7 |
| 20260505084752 | 55 | 75 | 4.0 | 12.0 | 0.00 | 0.00 | 0.00 | 72 | 1012.6 |
| 20260505084344 | 55 | 94 | 4.0 | 10.0 | 0.00 | 0.00 | 0.00 | 72 | 1012.6 |
| 20260505083840 | 55 | 135 | 3.0 | 10.0 | 0.00 | 0.00 | 0.00 | 73 | 1012.7 |
| 20260505083750 | 55 | 110 | 3.0 | 10.0 | 0.00 | 0.00 | 0.00 | 73 | 1012.7 |
| 20260505083332 | 54 | 100 | 3.0 | 10.0 | 0.00 | 0.00 | 0.00 | 73 | 1012.8 |
| 20260505082826 | 54 | 112 | 4.0 | 9.0 | 0.00 | 0.00 | 0.00 | 73 | 1012.8 |
| 20260505082750 | 54 | 127 | 4.0 | 9.0 | 0.00 | 0.00 | 0.00 | 73 | 1012.8 |
| 20260505082320 | 54 | 91 | 4.0 | 9.0 | 0.00 | 0.00 | 0.00 | 74 | 1012.8 |
| 20260505081817 | 54 | 39 | 3.0 | 9.0 | 0.00 | 0.00 | 0.00 | 74 | 1012.9 |
| 20260505081752 | 54 | 122 | 3.0 | 9.0 | 0.00 | 0.00 | 0.00 | 74 | 1012.9 |
| 20260505081307 | 54 | 117 | 3.0 | 10.0 | 0.00 | 0.00 | 0.00 | 74 | 1012.9 |
| 20260505080802 | 54 | 136 | 3.0 | 10.0 | 0.00 | 0.00 | 0.00 | 74 | 1012.9 |
| 20260505080750 | 54 | 146 | 3.0 | 10.0 | 0.00 | 0.00 | 0.00 | 74 | 1012.9 |
| 20260505080302 | 54 | 149 | 4.0 | 11.0 | 0.00 | 0.00 | 0.00 | 74 | 1012.9 |
| 20260505075802 | 54 | 106 | 4.0 | 11.0 | 0.00 | 0.00 | 0.00 | 73 | 1012.9 |
| 20260505075751 | 54 | 135 | 4.0 | 11.0 | 0.00 | 0.00 | 0.00 | 73 | 1012.8 |
| 20260505075304 | 55 | 49 | 3.0 | 11.0 | 0.00 | 0.00 | 0.00 | 74 | 1012.9 |
| 20260505074802 | 54 | 108 | 3.0 | 9.0 | 0.00 | 0.00 | 0.00 | 74 | 1012.9 |
| 20260505074748 | 54 | 95 | 3.0 | 9.0 | 0.00 | 0.00 | 0.00 | 74 | 1012.9 |
| 20260505074301 | 54 | 117 | 3.0 | 9.0 | 0.00 | 0.00 | 0.00 | 74 | 1012.9 |
| 20260505074238 | 54 | 216 | 3.0 | 9.0 | 0.00 | 0.00 | 0.00 | 75 | 1013.0 |
| 20260505074005 | 54 | 66 | 3.0 | 9.0 | 0.00 | 0.00 | 0.00 | 75 | 1013.1 |
| 20260505073300 | 54 | 0 | 3.0 | 7.0 | 0.00 | 0.00 | 0.00 | 76 | 1013.2 |
| 20260505072759 | 53 | 21 | 3.0 | 7.0 | 0.00 | 0.00 | 0.00 | 77 | 1013.3 |
| 20260505072746 | 53 | 81 | 3.0 | 7.0 | 0.00 | 0.00 | 0.00 | 77 | 1013.2 |
| 20260505072256 | 53 | 143 | 3.0 | 10.0 | 0.00 | 0.00 | 0.00 | 77 | 1013.1 |
| 20260505072231 | 53 | 106 | 4.0 | 10.0 | 0.00 | 0.00 | 0.00 | 76 | 1013.2 |
| 20260505072006 | 53 | 85 | 4.0 | 10.0 | 0.00 | 0.00 | 0.00 | 76 | 1013.1 |
| 20260505071256 | 53 | 98 | 3.0 | 10.0 | 0.00 | 0.00 | 0.00 | 76 | 1013.1 |
| 20260505070756 | 53 | 101 | 3.0 | 9.0 | 0.00 | 0.00 | 0.00 | 77 | 1013.1 |
| 20260505070746 | 53 | 79 | 3.0 | 9.0 | 0.00 | 0.00 | 0.00 | 77 | 1013.1 |
| 20260505070257 | 53 | 87 | 3.0 | 9.0 | 0.00 | 0.00 | 0.00 | 76 | 1013.1 |
| 20260505070144 | 53 | 53 | 3.0 | 13.0 | 0.00 | 0.00 | 0.00 | 77 | 1013.1 |
| 20260505065927 | 53 | 117 | 3.0 | 8.0 | 0.00 | 0.00 | 0.00 | 77 | 1013.0 |
| 20260505065921 | 53 | 117 | 3.0 | 8.0 | 0.00 | 0.00 | 0.00 | 77 | 1013.1 |